Regional Weather Roundup
Issued by NWS Albany, NY

Home | Current Version | Previous Version | Text Only | Print | Product List | Glossary Off
Versions: 1 2 3 4 5 6 7 8 9 10 11 12 13 14 15 16 17 18 19 20 21 22 23 24 25 26 27 28 29 30 31 32 33 34 35 36 37 38 39 40 41 42 43 44 45 46 47 48 49 50

000
ASUS41 KALY 052310
RWRALY

NEW YORK STATE HOURLY WEATHER ROUNDUP
NATIONAL WEATHER SERVICE ALBANY NY
600 PM EST THU MAR 05 2015

NOTE: "FAIR" INDICATES FEW OR NO CLOUDS BELOW 12,000 FEET WITH NO
SIGNIFICANT WEATHER AND/OR NO OBSTRUCTIONS TO VISIBILITY.

NYZ032-033-038>043-046>054-057>066-NYZ062>081-060000-
EAST


CITY           SKY/WX    TMP DP  RH WIND       PRES   REMARKS
ALBANY         CLOUDY    19   2  47 W15       30.23R WCI   5
GLENS FALLS    CLOUDY    16   0  49 E9        30.23R WCI   4
POUGHKEEPSIE   CLOUDY    22   5  48 N7        30.23R WCI  13
NEWBURGH       CLOUDY    21   7  53 NE5       30.20R WCI  15
MONTGOMERY     CLOUDY    22   1  40 NW9       30.22R WCI  12
WHITE PLAINS   CLOUDY    20  13  74 W8        30.20R WCI  10
ISLIP          LGT SNOW  20  16  84 NW14      30.17R VSB 1   WCI   7
NEW YORK CITY  LGT SNOW  22  18  85 NW14      30.24R VSB 1   WCI   9
CENTRAL PARK   LGT SNOW  20  16  84 VRB6      30.25R FOG     WCI  12
$$

NYZ005>009-017-018-044>046-055-056-060000-
CENTRAL


CITY           SKY/WX    TMP DP  RH WIND       PRES   REMARKS
FULTON         MOCLDY    12   3  67 NW6       30.32R WCI   3
SYRACUSE       MOCLDY    10   0  63 NW12      30.32R WCI  -5
ROME           PTCLDY    12  -4  48 W16       30.30R WCI  -5
ELMIRA         MOCLDY    15   0  51 N8        30.28R WCI   4
BINGHAMTON     CLOUDY    10   2  69 NW8       30.19R WCI  -2
MONTICELLO     CLOUDY    14   0  52 NW9       30.17R WCI   2
$$

NYZ026>034-041>043-060000-
NORTH


CITY           SKY/WX    TMP DP  RH WIND       PRES   REMARKS
WATERTOWN      CLEAR     11  -3  53 SW5       30.32R WCI   3
FORT DRUM      NOT AVBL
MASSENA        CLEAR      9 -11  40 W5        30.32R WCI   1
SARANAC LAKE   CLEAR      6 -13  41 VRB5      30.11R WCI  -3
PLATTSBURGH    MOCLDY    11  -6  46 N14       30.26R WCI  -5
$$

NYZ001>004-010>016-019>021-060000-
WEST


CITY           SKY/WX    TMP DP  RH WIND       PRES   REMARKS
NIAGARA FALLS  MOCLDY    11  -2  56 NW8       30.36R WCI  -1
BUFFALO        MOCLDY    10   0  63 SW14      30.35R WCI  -6
DUNKIRK        CLEAR     10  -1  61 W7        30.39R WCI  -1
JAMESTOWN      CLEAR      7  -6  56 NW12G18   30.27R WCI  -9
WELLSVILLE     CLEAR      9  -6  50 NW13      30.20R WCI  -7
ROCHESTER      LGT SNOW  13   6  74 NW9       30.34R VSB 1   WCI   1
PENN YAN       CLEAR     12  -2  53 NW7       30.29R WCI   1
$$

             KEY
       WCI = WIND CHILL INDEX
       VSB = VISIBILITY
       HX  = HEAT INDEX
$$


USA.gov is the U.S. government's official web portal to all federal, state and local government web resources and services.